Вернуться в каталог

COSMOS 970 DEB

АктивенLEO
NORAD 64977·DEBRIS·🇷🇺 Russia

Запущен Dec 21, 1977 с Baikonur Cosmodrome

Loading…

Ближайшие Пролёты (ближайшие 24 часа)

TLE

СвежийSource: Space-Track

Эпоха: Sep 13, 2026, 20:31 UTC

1 64977U 77121CN  26256.85533780  .00000088  00000-0  17814-3 0  9991
2 64977  65.7674  91.8351 0120410 351.9514  23.0697 13.71350280640718

Отслеживайте COSMOS 970 DEB в реальном времени с AllMySat

Download on the App Store